[[{"header":{"parameterUnit":"m.s-1","parameterCategory":1,"la1":30.2991,"la2":30.254,"lo1":-89.0895,"lo2":-89.0444,"dy":0.0017,"dx":0.0017,"nx":28,"ny":28,"refTime":"2025-03-20T09:00:00:Z","depth":0,"parameterNumber":2,"parameterNumberName":"U-component_of_WINDS"},"data":[0,0,0,0,0,0,0,0,0,0,0,0,0,0,0,0,0,0,0,0,0,0,0,0,0,0,0,0,0,0,0,0,0,0,0,0,0,0,0,0,0,0,0,0,0,0,0,0,0,0,0,0,0,0,0,0,0,0,4.2238,4.2239,0,4.2342,4.2343,4.2344,4.2298,4.2295,4.2293,4.229,4.2395,4.24,4.2405,0,0,0,0,0,0,0,0,0,0,0,0,0,4.1994,4.1999,4.2238,4.2239,4.2241,4.2342,4.2343,4.2345,4.2298,4.2295,4.2292,4.2289,4.2394,4.24,4.2406,0,0,0,0,0,0,0,0,0,0,0,0,0,4.2099,4.2001,4.2238,4.223,4.223,4.2342,4.2343,4.2345,4.2299,4.2295,4.2291,4.2288,4.2392,4.2399,4.2407,4.2532,0,0,4.2431,4.2434,0,0,0,0,0,0,0,0,4.2093,4.2108,4.223,4.223,4.2231,4.2303,4.2296,4.2408,4.23,4.2273,4.229,4.2286,4.2368,4.2377,4.2405,4.2537,4.2541,4.2431,4.2436,4.2439,4.2442,0,0,0,0,0,0,0,4.2086,4.2104,4.2279,4.2231,4.2232,4.2219,4.223,4.2317,4.2341,4.2275,4.2272,4.2285,4.2367,4.2398,4.2407,4.2543,4.2431,4.2438,4.2443,4.2446,4.2776,4.278,0,0,0,0,0,0,4.208,4.2098,4.2276,4.2282,4.2151,4.2227,4.2239,4.2284,4.2339,4.2344,4.2288,4.2282,4.2386,4.2398,4.2411,4.2556,4.2439,4.2447,4.2451,4.2772,4.2777,4.2781,0,0,0,0,0,0,4.2074,4.2096,4.2272,4.2189,4.2211,4.2235,4.2286,4.2288,4.2318,4.2349,4.2353,4.2315,4.2384,4.24,4.2501,4.2559,4.245,4.2457,4.2767,4.2773,4.2779,4.2851,0,0,0,0,0,0,4.2068,4.2094,4.2144,4.2191,4.2215,4.2362,4.229,4.2293,4.2332,4.2325,4.2376,4.238,4.2382,4.2489,4.2508,4.2568,4.2463,4.2762,4.277,4.2777,4.2843,4.2858,4.2872,0,0,0,0,0,4.2059,4.216,4.2146,4.2168,4.2277,4.2365,4.2379,4.2379,4.2337,4.2385,4.2404,4.2379,4.255,4.25,4.2521,4.2584,4.2758,4.2768,4.2776,4.2837,4.2855,4.2871,0,0,0,0,0,0,4.212,4.2167,4.2151,4.2271,4.2314,4.2357,4.2418,4.24,4.2456,4.2447,4.2445,4.2457,4.256,4.2583,4.2526,4.2705,4.2647,4.2661,4.2686,4.2704,4.2718,4.2709,4.247,0,0,0,0,0,4.2147,4.2216,4.2253,4.2355,4.2377,4.2394,4.2433,4.2429,4.2473,4.2491,4.2518,4.2561,4.2624,4.2666,4.2726,4.2847,4.2854,4.29,4.2914,4.2926,4.2937,4.2997,4.3016,4.2812,4.2811,4.2811,0,0,4.2205,4.2238,4.2282,4.2368,4.2401,4.2469,4.241,4.2486,4.2536,4.2503,4.2598,4.2619,4.2667,4.2777,4.2827,4.2799,4.2995,4.2938,4.2947,4.2951,4.3008,4.3027,4.3044,4.2818,4.2817,4.2816,0,0,4.2342,4.2377,4.2463,4.2497,4.2547,4.2557,4.2578,4.2623,4.2635,4.2732,4.2706,4.2765,4.2876,4.2909,4.294,4.3087,4.3063,4.3107,4.318,4.3239,4.3255,4.3269,4.3316,4.3334,4.3119,4.3119,4.3119,0,4.2407,4.251,4.251,4.2587,4.2623,4.2596,4.2681,4.2714,4.2781,4.2806,4.2774,4.2908,4.2939,4.3053,4.3089,4.3117,4.3137,4.31,4.3253,4.3267,4.328,4.3325,4.3343,4.3123,4.3123,4.3122,4.3122,0,4.2584,4.2656,4.272,4.2784,4.2828,4.2909,4.2918,4.2962,4.2954,4.2967,4.3062,4.3098,4.3162,4.319,4.3184,4.3303,4.3283,4.3253,4.3194,4.3304,4.3346,4.3364,4.313,4.3128,4.3127,4.3126,0,0,4.2764,4.2824,4.2847,4.2874,4.2926,4.298,4.3059,4.3121,4.3157,4.3204,4.3266,4.3359,4.3329,4.3365,4.3362,4.3414,4.3521,4.3376,4.3377,4.3397,4.3648,4.3668,4.3688,4.3507,4.3511,4.3513,4.3642,0,4.2902,4.3038,4.3039,4.3164,4.3227,4.3201,4.3268,4.3306,4.3319,4.3373,4.3388,4.3451,4.341,4.343,4.3481,4.3497,4.3571,4.3489,4.3562,4.3564,4.3546,4.3711,4.3733,4.3853,4.3659,4.3662,4.3664,0,4.3081,4.3132,4.3263,4.3301,4.3328,4.3389,4.3443,4.3497,4.3538,4.3544,4.3582,4.357,4.3646,4.3588,4.369,4.3634,4.3664,4.3676,4.3681,4.3685,4.3618,4.3715,4.3892,4.3908,4.3691,4.3689,4.3687,0,4.3192,4.3294,4.3384,4.3409,4.3457,4.3499,4.3521,4.3558,4.3594,4.3642,4.3665,4.3722,4.3752,4.3795,4.3797,4.3755,4.3898,4.3842,4.3902,4.3902,4.3931,4.3928,4.4111,4.3957,4.3957,4.3957,4.3956,0,4.3344,4.3424,4.3434,4.3489,4.3577,4.3575,4.3662,4.368,4.3712,4.3768,4.375,4.3803,4.3804,4.3858,4.386,4.3941,4.3957,4.3961,4.396,4.396,4.3959,4.3977,4.3967,4.3962,4.3961,4.396,4.3959,0,4.3482,4.3493,4.3588,4.3625,4.3636,4.3699,4.3729,4.378,4.3791,4.3862,4.3878,4.3895,4.3956,4.3963,4.4036,4.4037,4.4133,4.4126,4.4119,4.4117,4.4175,4.4167,4.4372,4.4397,4.4231,4.4233,4.4234,0,4.3576,4.3637,4.368,4.3715,4.3739,4.3799,4.3834,4.3835,4.3872,4.3921,4.3965,4.4025,4.4072,4.417,4.4188,4.4241,4.4232,4.43,4.424,4.4237,4.4227,4.4222,4.4225,4.4311,4.4312,4.4314,4.4315,0,4.3741,4.3742,4.3795,4.3849,4.3892,4.3934,4.3974,4.4004,4.4009,4.4052,4.4114,4.4151,4.4222,4.428,4.4332,4.4352,4.4333,4.4334,4.435,4.4349,4.4341,4.4341,4.4146,4.4329,4.4328,4.4327,4.4326,4.4325,4.3856,4.3907,4.3943,4.4002,4.4031,4.4068,4.4116,4.4132,4.4184,4.4242,4.4239,4.4306,4.4341,4.4409,4.4433,4.4484,4.4461,4.4486,4.4491,4.4496,4.4499,4.4336,4.4494,4.4494,4.4493,4.4493,4.4493,0,4.4015,4.4037,4.4091,4.4145,4.419,4.417,4.4211,4.425,4.4309,4.4344,4.439,4.4458,4.4513,4.4534,4.4587,4.4623,4.4615,4.4636,4.4632,4.4636,4.4519,4.4498,4.4642,4.4641,4.4641,4.4641,4.4641,4.4641,4.4103,4.4185,4.419,4.4286,4.4307,4.4372,4.4397,4.4429,4.4456,4.4534,4.4579,4.4592,4.462,4.4675,4.4723,4.4727,4.4745,4.4769,4.477,4.466,4.4645,4.463,4.461,4.4775,4.4775,4.4881,4.4882,4.4883]},{"header":{"parameterUnit":"m.s-1","parameterCategory":1,"la1":30.2991,"la2":30.254,"lo1":-89.0895,"lo2":-89.0444,"dy":0.0017,"dx":0.0017,"nx":28,"ny":28,"refTime":"2025-03-20T09:00:00:Z","depth":0,"parameterNumber":3,"parameterNumberName":"V-component_of_WINDS"},"data":[0,0,0,0,0,0,0,0,0,0,0,0,0,0,0,0,0,0,0,0,0,0,0,0,0,0,0,0,0,0,0,0,0,0,0,0,0,0,0,0,0,0,0,0,0,0,0,0,0,0,0,0,0,0,0,0,0,0,4.1145,4.1147,0,4.1264,4.1265,4.1266,4.1251,4.1249,4.1247,4.1245,4.1362,4.1367,4.1372,0,0,0,0,0,0,0,0,0,0,0,0,0,4.0899,4.0904,4.1145,4.1147,4.1148,4.1263,4.1265,4.1267,4.1251,4.1249,4.1246,4.1244,4.1361,4.1367,4.1372,0,0,0,0,0,0,0,0,0,0,0,0,0,4.1011,4.0905,4.1145,4.1154,4.1157,4.1263,4.1265,4.1267,4.1252,4.1249,4.1246,4.1243,4.1359,4.1366,4.1373,4.1477,0,0,4.1396,4.1399,0,0,0,0,0,0,0,0,4.1004,4.102,4.1152,4.1154,4.1156,4.124,4.1221,4.1337,4.1252,4.1215,4.1245,4.1242,4.1324,4.1334,4.1362,4.1482,4.1487,4.1396,4.1401,4.1404,4.1406,0,0,0,0,0,0,0,4.0997,4.1014,4.1192,4.1153,4.1156,4.1151,4.1163,4.1243,4.1284,4.1218,4.1218,4.1232,4.1324,4.1355,4.1365,4.1489,4.1396,4.1403,4.1407,4.141,4.1695,4.1698,0,0,0,0,0,0,4.0987,4.1008,4.1188,4.1196,4.1072,4.1157,4.1172,4.1216,4.1283,4.1291,4.1234,4.1231,4.1344,4.1356,4.1369,4.1491,4.1404,4.1411,4.1415,4.1692,4.1696,4.1699,0,0,0,0,0,0,4.0982,4.1003,4.1183,4.1102,4.1124,4.1165,4.1215,4.122,4.125,4.1295,4.1302,4.1259,4.1342,4.1358,4.1449,4.1495,4.1414,4.1421,4.1688,4.1693,4.1697,4.1739,0,0,0,0,0,0,4.0975,4.1002,4.1043,4.1103,4.1129,4.1264,4.1218,4.1224,4.1264,4.126,4.132,4.1327,4.1341,4.1438,4.1457,4.1504,4.1427,4.1684,4.169,4.1696,4.1734,4.1745,4.1754,0,0,0,0,0,4.0966,4.1051,4.1046,4.1067,4.1182,4.1267,4.1281,4.1297,4.1268,4.1308,4.1336,4.1325,4.1488,4.1448,4.1468,4.1519,4.1681,4.1689,4.1695,4.1729,4.1743,4.1754,0,0,0,0,0,0,4.0995,4.1059,4.1054,4.116,4.1208,4.1264,4.1316,4.1311,4.1368,4.1362,4.1378,4.1391,4.1482,4.151,4.1464,4.162,4.158,4.1591,4.1599,4.1612,4.1622,4.1612,4.1433,0,0,0,0,0,4.1014,4.108,4.1131,4.122,4.1244,4.1276,4.1314,4.1321,4.1371,4.1391,4.1426,4.1474,4.1535,4.1575,4.1634,4.1738,4.1748,4.1782,4.1792,4.18,4.1809,4.1862,4.1876,4.1722,4.1722,4.1722,0,0,4.1054,4.1096,4.1137,4.1226,4.1265,4.133,4.1293,4.1365,4.1412,4.1402,4.1489,4.1516,4.157,4.1666,4.1711,4.1692,4.1854,4.1809,4.1815,4.182,4.1871,4.1885,4.1898,4.1727,4.1726,4.1725,0,0,4.1158,4.1199,4.1275,4.1314,4.1372,4.1392,4.141,4.1466,4.1484,4.1572,4.1564,4.162,4.1726,4.1763,4.1796,4.1911,4.1901,4.193,4.1982,4.2033,4.2045,4.2056,4.2094,4.2107,4.1939,4.1939,4.1939,0,4.12,4.1299,4.1315,4.1387,4.1424,4.1418,4.1493,4.153,4.1604,4.1629,4.1607,4.1737,4.1774,4.1877,4.1904,4.1932,4.1951,4.1923,4.2042,4.2053,4.2064,4.21,4.2114,4.1942,4.1942,4.1941,4.1941,0,4.1345,4.1414,4.1469,4.154,4.1584,4.1658,4.1682,4.1724,4.1727,4.1748,4.1835,4.1878,4.1944,4.1969,4.1973,4.2072,4.2058,4.2039,4.1999,4.2081,4.2115,4.2129,4.1946,4.1945,4.1944,4.1943,0,0,4.1474,4.1551,4.157,4.1601,4.1662,4.1715,4.1786,4.1851,4.1885,4.1935,4.1993,4.2081,4.2063,4.2101,4.2108,4.2153,4.2236,4.2128,4.213,4.2145,4.2344,4.2356,4.2372,4.2231,4.2234,4.2236,4.2338,0,4.1582,4.171,4.1724,4.1836,4.1897,4.189,4.1951,4.1994,4.2016,4.2069,4.2091,4.2152,4.2126,4.2148,4.2192,4.2217,4.2276,4.221,4.2282,4.2284,4.2267,4.239,4.2404,4.2499,4.2352,4.2354,4.2356,0,4.1727,4.1781,4.1899,4.1949,4.1975,4.203,4.2088,4.2141,4.2187,4.2199,4.2239,4.224,4.2309,4.2267,4.2361,4.2316,4.2346,4.2362,4.2366,4.2372,4.2324,4.2397,4.253,4.2544,4.2378,4.2376,4.2374,0,4.1804,4.1907,4.199,4.2016,4.2077,4.2115,4.2142,4.2187,4.2223,4.2274,4.2297,4.2354,4.2386,4.2429,4.2443,4.2412,4.2536,4.2496,4.2545,4.2544,4.2571,4.2568,4.2708,4.2593,4.2593,4.2593,4.2592,0,4.1923,4.1995,4.2025,4.2076,4.2155,4.2169,4.2246,4.2271,4.2309,4.2363,4.236,4.241,4.2427,4.2479,4.249,4.2565,4.2579,4.2588,4.259,4.2588,4.2586,4.2607,4.2599,4.2597,4.2596,4.2595,4.2594,0,4.2024,4.2047,4.2136,4.2186,4.2199,4.2255,4.2296,4.2344,4.2363,4.243,4.2447,4.2476,4.2537,4.2556,4.2629,4.2636,4.2722,4.2719,4.2706,4.2706,4.2753,4.2747,4.2909,4.293,4.2803,4.2804,4.2805,0,4.2097,4.2152,4.2207,4.2243,4.2271,4.2329,4.2366,4.2381,4.2419,4.2474,4.2514,4.2574,4.2623,4.2718,4.2745,4.28,4.2797,4.2849,4.2805,4.2799,4.2794,4.279,4.2794,4.2857,4.2859,4.286,4.2861,0,4.2224,4.2232,4.2286,4.2343,4.2388,4.2433,4.2477,4.2506,4.2527,4.2569,4.2631,4.2668,4.2742,4.28,4.2855,4.2879,4.2872,4.2874,4.2888,4.2885,4.2874,4.2878,4.2727,4.287,4.2869,4.2869,4.2868,4.2868,4.2312,4.2359,4.2404,4.2463,4.2497,4.2537,4.2583,4.2607,4.266,4.2721,4.2726,4.2792,4.2833,4.2906,4.2933,4.2983,4.2967,4.2988,4.2993,4.2997,4.3,4.2868,4.2993,4.2993,4.2993,4.2993,4.2992,0,4.2436,4.2464,4.2518,4.2579,4.2625,4.2615,4.2662,4.27,4.2758,4.2798,4.2845,4.2914,4.2969,4.2999,4.3054,4.3087,4.3085,4.3101,4.3098,4.3103,4.3012,4.2993,4.3101,4.3101,4.3101,4.3101,4.3101,4.3101,4.2506,4.2584,4.2596,4.2689,4.2716,4.2781,4.2808,4.2844,4.2875,4.2953,4.2999,4.3018,4.3053,4.3109,4.3158,4.3165,4.3184,4.3201,4.3206,4.3121,4.3109,4.3099,4.3081,4.3206,4.3206,4.3292,4.3293,4.3294]}]]